owner,sensor,date,latitude,longitude,air_temperature,qcFlag 
DISL,ioos:station:DISL:MHPA:1,2013-10-01T00:00:00Z,30.6671,-87.9365,24.93,1111122 
DISL,ioos:station:DISL:MHPA:1,2013-10-01T00:30:00Z,30.6671,-87.9365,24.71,1111122 
DISL,ioos:station:DISL:MHPA:1,2013-10-01T01:00:00Z,30.6671,-87.9365,24.59,1111122 
DISL,ioos:station:DISL:MHPA:1,2013-10-01T01:30:00Z,30.6671,-87.9365,24.47,1111122 
DISL,ioos:station:DISL:MHPA:1,2013-10-01T02:00:00Z,30.6671,-87.9365,24.27,1111122 
DISL,ioos:station:DISL:MHPA:1,2013-10-01T02:30:00Z,30.6671,-87.9365,24.04,1111122 
DISL,ioos:station:DISL:MHPA:1,2013-10-01T03:00:00Z,30.6671,-87.9365,23.82,1111122 
DISL,ioos:station:DISL:MHPA:1,2013-10-01T03:30:00Z,30.6671,-87.9365,23.78,1111122 
DISL,ioos:station:DISL:MHPA:1,2013-10-01T04:00:00Z,30.6671,-87.9365,23.47,1111122 
DISL,ioos:station:DISL:MHPA:1,2013-10-01T04:30:00Z,30.6671,-87.9365,23.2,1111122 
DISL,ioos:station:DISL:MHPA:1,2013-10-01T05:00:00Z,30.6671,-87.9365,22.62,1111122 
DISL,ioos:station:DISL:MHPA:1,2013-10-01T05:30:00Z,30.6671,-87.9365,22.42,1111122 
DISL,ioos:station:DISL:MHPA:1,2013-10-01T06:00:00Z,30.6671,-87.9365,22.46,1111122 
DISL,ioos:station:DISL:MHPA:1,2013-10-01T06:30:00Z,30.6671,-87.9365,22.44,1111122 
DISL,ioos:station:DISL:MHPA:1,2013-10-01T07:00:00Z,30.6671,-87.9365,22.53,1111122 
DISL,ioos:station:DISL:MHPA:1,2013-10-01T07:30:00Z,30.6671,-87.9365,22.76,1111122 
DISL,ioos:station:DISL:MHPA:1,2013-10-01T08:00:00Z,30.6671,-87.9365,22.7,1111122 
DISL,ioos:station:DISL:MHPA:1,2013-10-01T08:30:00Z,30.6671,-87.9365,22.67,1111122 
DISL,ioos:station:DISL:MHPA:1,2013-10-01T09:00:00Z,30.6671,-87.9365,22.54,1111122 
DISL,ioos:station:DISL:MHPA:1,2013-10-01T09:30:00Z,30.6671,-87.9365,22.4,1111122 
DISL,ioos:station:DISL:MHPA:1,2013-10-01T10:00:00Z,30.6671,-87.9365,22.3,1111122 
DISL,ioos:station:DISL:MHPA:1,2013-10-01T10:30:00Z,30.6671,-87.9365,22.08,1111122 
DISL,ioos:station:DISL:MHPA:1,2013-10-01T11:00:00Z,30.6671,-87.9365,21.86,1111122 
DISL,ioos:station:DISL:MHPA:1,2013-10-01T11:30:00Z,30.6671,-87.9365,21.67,1111122 
DISL,ioos:station:DISL:MHPA:1,2013-10-01T12:00:00Z,30.6671,-87.9365,21.91,1111122 
DISL,ioos:station:DISL:MHPA:1,2013-10-01T12:30:00Z,30.6671,-87.9365,22.09,1111122 
DISL,ioos:station:DISL:MHPA:1,2013-10-01T13:00:00Z,30.6671,-87.9365,22.79,1111122 
DISL,ioos:station:DISL:MHPA:1,2013-10-01T13:30:00Z,30.6671,-87.9365,23.19,1111122 
DISL,ioos:station:DISL:MHPA:1,2013-10-01T14:00:00Z,30.6671,-87.9365,24.3,1111122 
DISL,ioos:station:DISL:MHPA:1,2013-10-01T14:30:00Z,30.6671,-87.9365,25.0,1111122 
DISL,ioos:station:DISL:MHPA:1,2013-10-01T15:00:00Z,30.6671,-87.9365,25.58,1111122 
DISL,ioos:station:DISL:MHPA:1,2013-10-01T15:30:00Z,30.6671,-87.9365,26.49,1111122 
DISL,ioos:station:DISL:MHPA:1,2013-10-01T16:00:00Z,30.6671,-87.9365,27.26,1111122 
DISL,ioos:station:DISL:MHPA:1,2013-10-01T16:30:00Z,30.6671,-87.9365,27.78,1111122 
DISL,ioos:station:DISL:MHPA:1,2013-10-01T17:00:00Z,30.6671,-87.9365,28.25,1111122 
DISL,ioos:station:DISL:MHPA:1,2013-10-01T17:30:00Z,30.6671,-87.9365,28.84,1111122 
DISL,ioos:station:DISL:MHPA:1,2013-10-01T18:00:00Z,30.6671,-87.9365,28.93,1111122 
DISL,ioos:station:DISL:MHPA:1,2013-10-01T18:30:00Z,30.6671,-87.9365,29.41,1111122 
DISL,ioos:station:DISL:MHPA:1,2013-10-01T19:00:00Z,30.6671,-87.9365,29.31,1111122 
DISL,ioos:station:DISL:MHPA:1,2013-10-01T19:30:00Z,30.6671,-87.9365,29.27,1111122 
DISL,ioos:station:DISL:MHPA:1,2013-10-01T20:00:00Z,30.6671,-87.9365,30.02,1111122 
DISL,ioos:station:DISL:MHPA:1,2013-10-01T20:30:00Z,30.6671,-87.9365,30.43,1111122 
DISL,ioos:station:DISL:MHPA:1,2013-10-01T21:00:00Z,30.6671,-87.9365,30.1,1111122 
DISL,ioos:station:DISL:MHPA:1,2013-10-01T21:30:00Z,30.6671,-87.9365,28.46,1111122 
DISL,ioos:station:DISL:MHPA:1,2013-10-01T22:00:00Z,30.6671,-87.9365,28.33,1111122 
DISL,ioos:station:DISL:MHPA:1,2013-10-01T22:30:00Z,30.6671,-87.9365,27.99,1111122 
DISL,ioos:station:DISL:MHPA:1,2013-10-01T23:00:00Z,30.6671,-87.9365,27.77,1111122 
DISL,ioos:station:DISL:MHPA:1,2013-10-01T23:30:00Z,30.6671,-87.9365,27.69,1111122 
DISL,ioos:station:DISL:MHPA:1,2013-10-02T00:00:00Z,30.6671,-87.9365,27.6,1111122 
DISL,ioos:station:DISL:MHPA:1,2013-10-02T00:30:00Z,30.6671,-87.9365,26.89,1111122 
DISL,ioos:station:DISL:MHPA:1,2013-10-02T01:00:00Z,30.6671,-87.9365,26.53,1111122 
DISL,ioos:station:DISL:MHPA:1,2013-10-02T01:30:00Z,30.6671,-87.9365,26.18,1111122 
DISL,ioos:station:DISL:MHPA:1,2013-10-02T02:00:00Z,30.6671,-87.9365,25.95,1111122 
DISL,ioos:station:DISL:MHPA:1,2013-10-02T02:30:00Z,30.6671,-87.9365,25.7,1111122 
DISL,ioos:station:DISL:MHPA:1,2013-10-02T03:00:00Z,30.6671,-87.9365,25.3,1111122 
DISL,ioos:station:DISL:MHPA:1,2013-10-02T03:30:00Z,30.6671,-87.9365,25.21,1111122 
DISL,ioos:station:DISL:MHPA:1,2013-10-02T04:00:00Z,30.6671,-87.9365,25.02,1111122 
DISL,ioos:station:DISL:MHPA:1,2013-10-02T04:30:00Z,30.6671,-87.9365,24.85,1111122 
DISL,ioos:station:DISL:MHPA:1,2013-10-02T05:00:00Z,30.6671,-87.9365,24.38,1111122 
DISL,ioos:station:DISL:MHPA:1,2013-10-02T05:30:00Z,30.6671,-87.9365,24.16,1111122 
DISL,ioos:station:DISL:MHPA:1,2013-10-02T06:00:00Z,30.6671,-87.9365,24.11,1111122 
DISL,ioos:station:DISL:MHPA:1,2013-10-02T06:30:00Z,30.6671,-87.9365,23.95,1111122 
DISL,ioos:station:DISL:MHPA:1,2013-10-02T07:00:00Z,30.6671,-87.9365,23.72,1111122 
DISL,ioos:station:DISL:MHPA:1,2013-10-02T07:30:00Z,30.6671,-87.9365,23.55,1111122 
DISL,ioos:station:DISL:MHPA:1,2013-10-02T08:00:00Z,30.6671,-87.9365,23.24,1111122 
DISL,ioos:station:DISL:MHPA:1,2013-10-02T08:30:00Z,30.6671,-87.9365,23.12,1111122 
DISL,ioos:station:DISL:MHPA:1,2013-10-02T09:00:00Z,30.6671,-87.9365,23.19,1111122 
DISL,ioos:station:DISL:MHPA:1,2013-10-02T09:30:00Z,30.6671,-87.9365,23.34,1111122 
DISL,ioos:station:DISL:MHPA:1,2013-10-02T10:00:00Z,30.6671,-87.9365,23.41,1111122 
DISL,ioos:station:DISL:MHPA:1,2013-10-02T10:30:00Z,30.6671,-87.9365,23.35,1111122 
DISL,ioos:station:DISL:MHPA:1,2013-10-02T11:00:00Z,30.6671,-87.9365,23.35,1111122 
DISL,ioos:station:DISL:MHPA:1,2013-10-02T11:30:00Z,30.6671,-87.9365,22.88,1111122 
DISL,ioos:station:DISL:MHPA:1,2013-10-02T12:00:00Z,30.6671,-87.9365,22.74,1111122 
DISL,ioos:station:DISL:MHPA:1,2013-10-02T12:30:00Z,30.6671,-87.9365,23.14,1111122 
DISL,ioos:station:DISL:MHPA:1,2013-10-02T13:00:00Z,30.6671,-87.9365,23.41,1111122 
DISL,ioos:station:DISL:MHPA:1,2013-10-02T13:30:00Z,30.6671,-87.9365,23.23,1111122 
DISL,ioos:station:DISL:MHPA:1,2013-10-02T14:00:00Z,30.6671,-87.9365,23.28,1111122 
DISL,ioos:station:DISL:MHPA:1,2013-10-02T14:30:00Z,30.6671,-87.9365,22.96,1111122 
DISL,ioos:station:DISL:MHPA:1,2013-10-02T15:00:00Z,30.6671,-87.9365,22.87,1111122 
DISL,ioos:station:DISL:MHPA:1,2013-10-02T15:30:00Z,30.6671,-87.9365,23.08,1111122 
DISL,ioos:station:DISL:MHPA:1,2013-10-02T16:00:00Z,30.6671,-87.9365,23.41,1111122 
DISL,ioos:station:DISL:MHPA:1,2013-10-02T16:30:00Z,30.6671,-87.9365,23.61,1111122 
DISL,ioos:station:DISL:MHPA:1,2013-10-02T17:00:00Z,30.6671,-87.9365,23.66,1111122 
DISL,ioos:station:DISL:MHPA:1,2013-10-02T17:30:00Z,30.6671,-87.9365,23.58,1111122 
DISL,ioos:station:DISL:MHPA:1,2013-10-02T18:00:00Z,30.6671,-87.9365,24.21,1111122 
DISL,ioos:station:DISL:MHPA:1,2013-10-02T18:30:00Z,30.6671,-87.9365,24.67,1111122 
DISL,ioos:station:DISL:MHPA:1,2013-10-02T19:00:00Z,30.6671,-87.9365,25.16,1111122 
DISL,ioos:station:DISL:MHPA:1,2013-10-02T19:30:00Z,30.6671,-87.9365,25.61,1111122 
DISL,ioos:station:DISL:MHPA:1,2013-10-02T20:00:00Z,30.6671,-87.9365,26.03,1111122 
DISL,ioos:station:DISL:MHPA:1,2013-10-02T20:30:00Z,30.6671,-87.9365,27.16,1111122 
DISL,ioos:station:DISL:MHPA:1,2013-10-02T21:00:00Z,30.6671,-87.9365,27.35,1111122 
DISL,ioos:station:DISL:MHPA:1,2013-10-02T21:30:00Z,30.6671,-87.9365,26.72,1111122 
DISL,ioos:station:DISL:MHPA:1,2013-10-02T22:00:00Z,30.6671,-87.9365,26.15,1111122 
DISL,ioos:station:DISL:MHPA:1,2013-10-02T22:30:00Z,30.6671,-87.9365,26.09,1111122 
DISL,ioos:station:DISL:MHPA:1,2013-10-02T23:00:00Z,30.6671,-87.9365,25.87,1111122 
DISL,ioos:station:DISL:MHPA:1,2013-10-02T23:30:00Z,30.6671,-87.9365,25.5,1111122 
DISL,ioos:station:DISL:MHPA:1,2013-10-03T00:00:00Z,30.6671,-87.9365,25.18,1111122 
DISL,ioos:station:DISL:MHPA:1,2013-10-03T00:30:00Z,30.6671,-87.9365,24.99,1111122 
DISL,ioos:station:DISL:MHPA:1,2013-10-03T01:00:00Z,30.6671,-87.9365,24.74,1111122 
DISL,ioos:station:DISL:MHPA:1,2013-10-03T01:30:00Z,30.6671,-87.9365,24.45,1111122 
DISL,ioos:station:DISL:MHPA:1,2013-10-03T02:00:00Z,30.6671,-87.9365,24.35,1111122 
DISL,ioos:station:DISL:MHPA:1,2013-10-03T02:30:00Z,30.6671,-87.9365,24.13,1111122 
DISL,ioos:station:DISL:MHPA:1,2013-10-03T03:00:00Z,30.6671,-87.9365,24.19,1111122 
DISL,ioos:station:DISL:MHPA:1,2013-10-03T03:30:00Z,30.6671,-87.9365,24.06,1111122 
DISL,ioos:station:DISL:MHPA:1,2013-10-03T04:00:00Z,30.6671,-87.9365,23.78,1111122 
DISL,ioos:station:DISL:MHPA:1,2013-10-03T04:30:00Z,30.6671,-87.9365,23.62,1111122 
DISL,ioos:station:DISL:MHPA:1,2013-10-03T05:00:00Z,30.6671,-87.9365,23.83,1111122 
DISL,ioos:station:DISL:MHPA:1,2013-10-03T05:30:00Z,30.6671,-87.9365,23.98,1111122 
DISL,ioos:station:DISL:MHPA:1,2013-10-03T06:00:00Z,30.6671,-87.9365,24.08,1111122 
DISL,ioos:station:DISL:MHPA:1,2013-10-03T06:30:00Z,30.6671,-87.9365,24.09,1111122 
DISL,ioos:station:DISL:MHPA:1,2013-10-03T07:00:00Z,30.6671,-87.9365,24.02,1111122 
DISL,ioos:station:DISL:MHPA:1,2013-10-03T07:30:00Z,30.6671,-87.9365,23.97,1111122 
DISL,ioos:station:DISL:MHPA:1,2013-10-03T08:00:00Z,30.6671,-87.9365,23.92,1111122 
DISL,ioos:station:DISL:MHPA:1,2013-10-03T08:30:00Z,30.6671,-87.9365,23.85,1111122 
DISL,ioos:station:DISL:MHPA:1,2013-10-03T09:00:00Z,30.6671,-87.9365,23.55,1111122 
DISL,ioos:station:DISL:MHPA:1,2013-10-03T09:30:00Z,30.6671,-87.9365,23.62,1111122 
DISL,ioos:station:DISL:MHPA:1,2013-10-03T10:00:00Z,30.6671,-87.9365,23.1,1111122 
DISL,ioos:station:DISL:MHPA:1,2013-10-03T10:30:00Z,30.6671,-87.9365,22.86,1111122 
DISL,ioos:station:DISL:MHPA:1,2013-10-03T11:00:00Z,30.6671,-87.9365,22.71,1111122 
DISL,ioos:station:DISL:MHPA:1,2013-10-03T11:30:00Z,30.6671,-87.9365,22.52,1111122 
DISL,ioos:station:DISL:MHPA:1,2013-10-03T12:00:00Z,30.6671,-87.9365,22.74,1111122 
DISL,ioos:station:DISL:MHPA:1,2013-10-03T12:30:00Z,30.6671,-87.9365,23.61,1111122 
DISL,ioos:station:DISL:MHPA:1,2013-10-03T13:00:00Z,30.6671,-87.9365,24.3,1111122 
DISL,ioos:station:DISL:MHPA:1,2013-10-03T13:30:00Z,30.6671,-87.9365,25.01,1111122 
DISL,ioos:station:DISL:MHPA:1,2013-10-03T14:00:00Z,30.6671,-87.9365,25.65,1111122 
DISL,ioos:station:DISL:MHPA:1,2013-10-03T14:30:00Z,30.6671,-87.9365,26.13,1111122 
DISL,ioos:station:DISL:MHPA:1,2013-10-03T15:00:00Z,30.6671,-87.9365,26.87,1111122 
DISL,ioos:station:DISL:MHPA:1,2013-10-03T15:30:00Z,30.6671,-87.9365,27.41,1111122 
DISL,ioos:station:DISL:MHPA:1,2013-10-03T16:00:00Z,30.6671,-87.9365,27.89,1111122 
DISL,ioos:station:DISL:MHPA:1,2013-10-03T16:30:00Z,30.6671,-87.9365,28.26,1111122 
DISL,ioos:station:DISL:MHPA:1,2013-10-03T17:00:00Z,30.6671,-87.9365,28.67,1111122 
DISL,ioos:station:DISL:MHPA:1,2013-10-03T17:30:00Z,30.6671,-87.9365,28.91,1111122 
DISL,ioos:station:DISL:MHPA:1,2013-10-03T18:00:00Z,30.6671,-87.9365,29.05,1111122 
DISL,ioos:station:DISL:MHPA:1,2013-10-03T18:30:00Z,30.6671,-87.9365,29.09,1111122 
DISL,ioos:station:DISL:MHPA:1,2013-10-03T19:00:00Z,30.6671,-87.9365,29.55,1111122 
DISL,ioos:station:DISL:MHPA:1,2013-10-03T19:30:00Z,30.6671,-87.9365,29.56,1111122 
DISL,ioos:station:DISL:MHPA:1,2013-10-03T20:00:00Z,30.6671,-87.9365,29.49,1111122 
DISL,ioos:station:DISL:MHPA:1,2013-10-03T20:30:00Z,30.6671,-87.9365,29.21,1111122 
DISL,ioos:station:DISL:MHPA:1,2013-10-03T21:00:00Z,30.6671,-87.9365,28.51,1111122 
DISL,ioos:station:DISL:MHPA:1,2013-10-03T21:30:00Z,30.6671,-87.9365,27.89,1111122 
DISL,ioos:station:DISL:MHPA:1,2013-10-03T22:00:00Z,30.6671,-87.9365,27.37,1111122 
DISL,ioos:station:DISL:MHPA:1,2013-10-03T22:30:00Z,30.6671,-87.9365,27.11,1111122 
DISL,ioos:station:DISL:MHPA:1,2013-10-03T23:00:00Z,30.6671,-87.9365,27.05,1111122 
DISL,ioos:station:DISL:MHPA:1,2013-10-03T23:30:00Z,30.6671,-87.9365,26.82,1111122 
DISL,ioos:station:DISL:MHPA:1,2013-10-04T00:00:00Z,30.6671,-87.9365,26.65,1111122 
DISL,ioos:station:DISL:MHPA:1,2013-10-04T00:30:00Z,30.6671,-87.9365,26.5,1111122 
DISL,ioos:station:DISL:MHPA:1,2013-10-04T01:00:00Z,30.6671,-87.9365,26.27,1111122 
DISL,ioos:station:DISL:MHPA:1,2013-10-04T01:30:00Z,30.6671,-87.9365,26.09,1111122 
DISL,ioos:station:DISL:MHPA:1,2013-10-04T02:00:00Z,30.6671,-87.9365,26.03,1111122 
DISL,ioos:station:DISL:MHPA:1,2013-10-04T02:30:00Z,30.6671,-87.9365,25.97,1111122 
DISL,ioos:station:DISL:MHPA:1,2013-10-04T03:00:00Z,30.6671,-87.9365,25.66,1111122 
DISL,ioos:station:DISL:MHPA:1,2013-10-04T03:30:00Z,30.6671,-87.9365,25.56,1111122 
DISL,ioos:station:DISL:MHPA:1,2013-10-04T04:00:00Z,30.6671,-87.9365,25.59,1111122 
DISL,ioos:station:DISL:MHPA:1,2013-10-04T04:30:00Z,30.6671,-87.9365,25.56,1111122 
DISL,ioos:station:DISL:MHPA:1,2013-10-04T05:00:00Z,30.6671,-87.9365,24.97,1111122 
DISL,ioos:station:DISL:MHPA:1,2013-10-04T05:30:00Z,30.6671,-87.9365,24.72,1111122 
DISL,ioos:station:DISL:MHPA:1,2013-10-04T06:00:00Z,30.6671,-87.9365,24.58,1111122 
DISL,ioos:station:DISL:MHPA:1,2013-10-04T06:30:00Z,30.6671,-87.9365,24.38,1111122 
DISL,ioos:station:DISL:MHPA:1,2013-10-04T07:00:00Z,30.6671,-87.9365,24.45,1111122 
DISL,ioos:station:DISL:MHPA:1,2013-10-04T07:30:00Z,30.6671,-87.9365,24.5,1111122 
DISL,ioos:station:DISL:MHPA:1,2013-10-04T08:00:00Z,30.6671,-87.9365,24.39,1111122 
DISL,ioos:station:DISL:MHPA:1,2013-10-04T08:30:00Z,30.6671,-87.9365,24.31,1111122 
DISL,ioos:station:DISL:MHPA:1,2013-10-04T09:00:00Z,30.6671,-87.9365,24.45,1111122 
DISL,ioos:station:DISL:MHPA:1,2013-10-04T09:30:00Z,30.6671,-87.9365,24.34,1111122 
DISL,ioos:station:DISL:MHPA:1,2013-10-04T10:00:00Z,30.6671,-87.9365,24.33,1111122 
DISL,ioos:station:DISL:MHPA:1,2013-10-04T10:30:00Z,30.6671,-87.9365,24.49,1111122 
DISL,ioos:station:DISL:MHPA:1,2013-10-04T11:00:00Z,30.6671,-87.9365,24.25,1111122 
DISL,ioos:station:DISL:MHPA:1,2013-10-04T11:30:00Z,30.6671,-87.9365,24.32,1111122 
DISL,ioos:station:DISL:MHPA:1,2013-10-04T12:00:00Z,30.6671,-87.9365,24.1,1111122 
DISL,ioos:station:DISL:MHPA:1,2013-10-04T12:30:00Z,30.6671,-87.9365,24.48,1111122 
DISL,ioos:station:DISL:MHPA:1,2013-10-04T13:00:00Z,30.6671,-87.9365,24.77,1111122 
DISL,ioos:station:DISL:MHPA:1,2013-10-04T13:30:00Z,30.6671,-87.9365,25.35,1111122 
DISL,ioos:station:DISL:MHPA:1,2013-10-04T14:00:00Z,30.6671,-87.9365,24.72,1111122 
DISL,ioos:station:DISL:MHPA:1,2013-10-04T14:30:00Z,30.6671,-87.9365,25.4,1111122 
DISL,ioos:station:DISL:MHPA:1,2013-10-04T15:00:00Z,30.6671,-87.9365,26.75,1111122 
DISL,ioos:station:DISL:MHPA:1,2013-10-04T15:30:00Z,30.6671,-87.9365,27.79,1111122 
DISL,ioos:station:DISL:MHPA:1,2013-10-04T16:00:00Z,30.6671,-87.9365,28.26,1111122 
DISL,ioos:station:DISL:MHPA:1,2013-10-04T16:30:00Z,30.6671,-87.9365,28.8,1111122 
DISL,ioos:station:DISL:MHPA:1,2013-10-04T17:00:00Z,30.6671,-87.9365,28.55,1111122 
DISL,ioos:station:DISL:MHPA:1,2013-10-04T17:30:00Z,30.6671,-87.9365,29.22,1111122 
DISL,ioos:station:DISL:MHPA:1,2013-10-04T18:00:00Z,30.6671,-87.9365,29.44,1111122 
DISL,ioos:station:DISL:MHPA:1,2013-10-04T18:30:00Z,30.6671,-87.9365,29.68,1111122 
DISL,ioos:station:DISL:MHPA:1,2013-10-04T19:00:00Z,30.6671,-87.9365,29.6,1111122 
DISL,ioos:station:DISL:MHPA:1,2013-10-04T19:30:00Z,30.6671,-87.9365,27.05,1111122 
DISL,ioos:station:DISL:MHPA:1,2013-10-04T20:00:00Z,30.6671,-87.9365,27.85,1111122 
DISL,ioos:station:DISL:MHPA:1,2013-10-04T20:30:00Z,30.6671,-87.9365,29.27,1111122 
DISL,ioos:station:DISL:MHPA:1,2013-10-04T21:00:00Z,30.6671,-87.9365,29.53,1111122 
DISL,ioos:station:DISL:MHPA:1,2013-10-04T21:30:00Z,30.6671,-87.9365,29.37,1111122 
DISL,ioos:station:DISL:MHPA:1,2013-10-04T22:00:00Z,30.6671,-87.9365,29.51,1111122 
DISL,ioos:station:DISL:MHPA:1,2013-10-04T22:30:00Z,30.6671,-87.9365,27.9,1111122 
DISL,ioos:station:DISL:MHPA:1,2013-10-04T23:00:00Z,30.6671,-87.9365,27.44,1111122 
DISL,ioos:station:DISL:MHPA:1,2013-10-04T23:30:00Z,30.6671,-87.9365,26.4,1111122 
DISL,ioos:station:DISL:MHPA:1,2013-10-05T00:00:00Z,30.6671,-87.9365,26.14,1111122 
DISL,ioos:station:DISL:MHPA:1,2013-10-05T00:30:00Z,30.6671,-87.9365,25.9,1111122 
DISL,ioos:station:DISL:MHPA:1,2013-10-05T01:00:00Z,30.6671,-87.9365,25.86,1111122 
DISL,ioos:station:DISL:MHPA:1,2013-10-05T01:30:00Z,30.6671,-87.9365,25.58,1111122 
DISL,ioos:station:DISL:MHPA:1,2013-10-05T02:00:00Z,30.6671,-87.9365,25.71,1111122 
DISL,ioos:station:DISL:MHPA:1,2013-10-05T02:30:00Z,30.6671,-87.9365,25.85,1111122 
DISL,ioos:station:DISL:MHPA:1,2013-10-05T03:00:00Z,30.6671,-87.9365,25.68,1111122 
DISL,ioos:station:DISL:MHPA:1,2013-10-05T03:30:00Z,30.6671,-87.9365,25.88,1111122 
DISL,ioos:station:DISL:MHPA:1,2013-10-05T04:00:00Z,30.6671,-87.9365,25.61,1111122 
DISL,ioos:station:DISL:MHPA:1,2013-10-05T04:30:00Z,30.6671,-87.9365,25.42,1111122 
DISL,ioos:station:DISL:MHPA:1,2013-10-05T05:00:00Z,30.6671,-87.9365,25.55,1111122 
DISL,ioos:station:DISL:MHPA:1,2013-10-05T05:30:00Z,30.6671,-87.9365,25.68,1111122 
DISL,ioos:station:DISL:MHPA:1,2013-10-05T06:00:00Z,30.6671,-87.9365,25.58,1111122 
DISL,ioos:station:DISL:MHPA:1,2013-10-05T06:30:00Z,30.6671,-87.9365,25.25,1111122 
DISL,ioos:station:DISL:MHPA:1,2013-10-05T07:00:00Z,30.6671,-87.9365,25.07,1111122 
DISL,ioos:station:DISL:MHPA:1,2013-10-05T07:30:00Z,30.6671,-87.9365,24.9,1111122 
DISL,ioos:station:DISL:MHPA:1,2013-10-05T08:00:00Z,30.6671,-87.9365,24.9,1111122 
DISL,ioos:station:DISL:MHPA:1,2013-10-05T08:30:00Z,30.6671,-87.9365,24.94,1111122 
DISL,ioos:station:DISL:MHPA:1,2013-10-05T09:00:00Z,30.6671,-87.9365,25.13,1111122 
DISL,ioos:station:DISL:MHPA:1,2013-10-05T09:30:00Z,30.6671,-87.9365,25.05,1111122 
DISL,ioos:station:DISL:MHPA:1,2013-10-05T10:00:00Z,30.6671,-87.9365,25.09,1111122 
DISL,ioos:station:DISL:MHPA:1,2013-10-05T10:30:00Z,30.6671,-87.9365,25.09,1111122 
DISL,ioos:station:DISL:MHPA:1,2013-10-05T11:00:00Z,30.6671,-87.9365,24.4,1111122 
DISL,ioos:station:DISL:MHPA:1,2013-10-05T11:30:00Z,30.6671,-87.9365,24.33,1111122 
DISL,ioos:station:DISL:MHPA:1,2013-10-05T12:00:00Z,30.6671,-87.9365,24.3,1111122 
DISL,ioos:station:DISL:MHPA:1,2013-10-05T12:30:00Z,30.6671,-87.9365,24.46,1111122 
DISL,ioos:station:DISL:MHPA:1,2013-10-05T13:00:00Z,30.6671,-87.9365,24.07,1111122 
DISL,ioos:station:DISL:MHPA:1,2013-10-05T13:30:00Z,30.6671,-87.9365,24.68,1111122 
DISL,ioos:station:DISL:MHPA:1,2013-10-05T14:00:00Z,30.6671,-87.9365,25.29,1111122 
DISL,ioos:station:DISL:MHPA:1,2013-10-05T14:30:00Z,30.6671,-87.9365,25.55,1111122 
DISL,ioos:station:DISL:MHPA:1,2013-10-05T15:00:00Z,30.6671,-87.9365,26.22,1111122 
DISL,ioos:station:DISL:MHPA:1,2013-10-05T15:30:00Z,30.6671,-87.9365,26.93,1111122 
DISL,ioos:station:DISL:MHPA:1,2013-10-05T16:00:00Z,30.6671,-87.9365,27.75,1111122 
DISL,ioos:station:DISL:MHPA:1,2013-10-05T16:30:00Z,30.6671,-87.9365,28.36,1111122 
DISL,ioos:station:DISL:MHPA:1,2013-10-05T17:00:00Z,30.6671,-87.9365,28.7,1111122 
DISL,ioos:station:DISL:MHPA:1,2013-10-05T17:30:00Z,30.6671,-87.9365,29.25,1111122 
DISL,ioos:station:DISL:MHPA:1,2013-10-05T18:00:00Z,30.6671,-87.9365,29.29,1111122 
DISL,ioos:station:DISL:MHPA:1,2013-10-05T18:30:00Z,30.6671,-87.9365,29.62,1111122 
DISL,ioos:station:DISL:MHPA:1,2013-10-05T19:00:00Z,30.6671,-87.9365,29.75,1111122 
DISL,ioos:station:DISL:MHPA:1,2013-10-05T19:30:00Z,30.6671,-87.9365,29.87,1111122 
DISL,ioos:station:DISL:MHPA:1,2013-10-05T20:00:00Z,30.6671,-87.9365,29.43,1111122 
DISL,ioos:station:DISL:MHPA:1,2013-10-05T20:30:00Z,30.6671,-87.9365,27.99,1111122 
DISL,ioos:station:DISL:MHPA:1,2013-10-05T21:00:00Z,30.6671,-87.9365,28.11,1111122 
DISL,ioos:station:DISL:MHPA:1,2013-10-05T21:30:00Z,30.6671,-87.9365,28.57,1111122 
DISL,ioos:station:DISL:MHPA:1,2013-10-05T22:00:00Z,30.6671,-87.9365,29.22,1111122 
DISL,ioos:station:DISL:MHPA:1,2013-10-05T22:30:00Z,30.6671,-87.9365,29.03,1111122 
DISL,ioos:station:DISL:MHPA:1,2013-10-05T23:00:00Z,30.6671,-87.9365,28.68,1111122 
DISL,ioos:station:DISL:MHPA:1,2013-10-05T23:30:00Z,30.6671,-87.9365,28.11,1111122 
DISL,ioos:station:DISL:MHPA:1,2013-10-06T00:00:00Z,30.6671,-87.9365,27.64,1111122 
DISL,ioos:station:DISL:MHPA:1,2013-10-06T00:30:00Z,30.6671,-87.9365,27.31,1111122 
DISL,ioos:station:DISL:MHPA:1,2013-10-06T01:00:00Z,30.6671,-87.9365,27.06,1111122 
DISL,ioos:station:DISL:MHPA:1,2013-10-06T01:30:00Z,30.6671,-87.9365,26.66,1111122 
DISL,ioos:station:DISL:MHPA:1,2013-10-06T02:00:00Z,30.6671,-87.9365,26.55,1111122 
DISL,ioos:station:DISL:MHPA:1,2013-10-06T02:30:00Z,30.6671,-87.9365,26.19,1111122 
DISL,ioos:station:DISL:MHPA:1,2013-10-06T03:00:00Z,30.6671,-87.9365,25.55,1111122 
DISL,ioos:station:DISL:MHPA:1,2013-10-06T03:30:00Z,30.6671,-87.9365,25.08,1111122 
DISL,ioos:station:DISL:MHPA:1,2013-10-06T04:00:00Z,30.6671,-87.9365,25.06,1111122 
DISL,ioos:station:DISL:MHPA:1,2013-10-06T04:30:00Z,30.6671,-87.9365,24.91,1111122 
DISL,ioos:station:DISL:MHPA:1,2013-10-06T05:00:00Z,30.6671,-87.9365,24.89,1111122 
DISL,ioos:station:DISL:MHPA:1,2013-10-06T05:30:00Z,30.6671,-87.9365,24.64,1111122 
DISL,ioos:station:DISL:MHPA:1,2013-10-06T06:00:00Z,30.6671,-87.9365,24.53,1111122 
DISL,ioos:station:DISL:MHPA:1,2013-10-06T06:30:00Z,30.6671,-87.9365,24.39,1111122 
DISL,ioos:station:DISL:MHPA:1,2013-10-06T07:00:00Z,30.6671,-87.9365,24.4,1111122 
DISL,ioos:station:DISL:MHPA:1,2013-10-06T07:30:00Z,30.6671,-87.9365,24.45,1111122 
DISL,ioos:station:DISL:MHPA:1,2013-10-06T08:00:00Z,30.6671,-87.9365,24.24,1111122 
DISL,ioos:station:DISL:MHPA:1,2013-10-06T08:30:00Z,30.6671,-87.9365,23.96,1111122 
DISL,ioos:station:DISL:MHPA:1,2013-10-06T09:00:00Z,30.6671,-87.9365,24.02,1111122 
DISL,ioos:station:DISL:MHPA:1,2013-10-06T09:30:00Z,30.6671,-87.9365,24.03,1111122 
DISL,ioos:station:DISL:MHPA:1,2013-10-06T10:00:00Z,30.6671,-87.9365,24.2,1111122 
DISL,ioos:station:DISL:MHPA:1,2013-10-06T10:30:00Z,30.6671,-87.9365,24.35,1111122 
DISL,ioos:station:DISL:MHPA:1,2013-10-06T11:00:00Z,30.6671,-87.9365,24.52,1111122 
DISL,ioos:station:DISL:MHPA:1,2013-10-06T11:30:00Z,30.6671,-87.9365,24.4,1111122 
DISL,ioos:station:DISL:MHPA:1,2013-10-06T12:00:00Z,30.6671,-87.9365,24.26,1111122 
DISL,ioos:station:DISL:MHPA:1,2013-10-06T12:30:00Z,30.6671,-87.9365,24.43,1111122 
DISL,ioos:station:DISL:MHPA:1,2013-10-06T13:00:00Z,30.6671,-87.9365,24.2,1111122 
DISL,ioos:station:DISL:MHPA:1,2013-10-06T13:30:00Z,30.6671,-87.9365,24.07,1111122 
DISL,ioos:station:DISL:MHPA:1,2013-10-06T14:00:00Z,30.6671,-87.9365,24.05,1111122 
DISL,ioos:station:DISL:MHPA:1,2013-10-06T14:30:00Z,30.6671,-87.9365,23.98,1111122 
DISL,ioos:station:DISL:MHPA:1,2013-10-06T15:00:00Z,30.6671,-87.9365,24.29,1111122 
DISL,ioos:station:DISL:MHPA:1,2013-10-06T15:30:00Z,30.6671,-87.9365,24.44,1111122 
DISL,ioos:station:DISL:MHPA:1,2013-10-06T16:00:00Z,30.6671,-87.9365,24.66,1111122 
DISL,ioos:station:DISL:MHPA:1,2013-10-06T16:30:00Z,30.6671,-87.9365,24.05,1111122 
DISL,ioos:station:DISL:MHPA:1,2013-10-06T17:00:00Z,30.6671,-87.9365,23.92,1111122 
DISL,ioos:station:DISL:MHPA:1,2013-10-06T17:30:00Z,30.6671,-87.9365,23.95,1111122 
DISL,ioos:station:DISL:MHPA:1,2013-10-06T18:00:00Z,30.6671,-87.9365,24.24,1111122 
DISL,ioos:station:DISL:MHPA:1,2013-10-06T18:30:00Z,30.6671,-87.9365,24.06,1111122 
DISL,ioos:station:DISL:MHPA:1,2013-10-06T19:00:00Z,30.6671,-87.9365,23.98,1111122 
DISL,ioos:station:DISL:MHPA:1,2013-10-06T19:30:00Z,30.6671,-87.9365,23.7,1111122 
DISL,ioos:station:DISL:MHPA:1,2013-10-06T20:00:00Z,30.6671,-87.9365,23.47,1111122 
DISL,ioos:station:DISL:MHPA:1,2013-10-06T20:30:00Z,30.6671,-87.9365,23.65,1111122 
DISL,ioos:station:DISL:MHPA:1,2013-10-06T21:00:00Z,30.6671,-87.9365,23.7,1111122 
DISL,ioos:station:DISL:MHPA:1,2013-10-06T21:30:00Z,30.6671,-87.9365,24.57,1111122 
DISL,ioos:station:DISL:MHPA:1,2013-10-06T22:00:00Z,30.6671,-87.9365,25.2,1111122 
DISL,ioos:station:DISL:MHPA:1,2013-10-06T22:30:00Z,30.6671,-87.9365,24.85,1111122 
DISL,ioos:station:DISL:MHPA:1,2013-10-06T23:00:00Z,30.6671,-87.9365,24.55,1111122 
DISL,ioos:station:DISL:MHPA:1,2013-10-06T23:30:00Z,30.6671,-87.9365,24.18,1111122 